This is the latest recevied weather packets stored in our database for station/object K6TTR. If no packets are shown the sender has not sent any weather packets the latest 1 day(s).
| Time | Temp. | Humidity | Pressure | Rain* | Wind** | Luminosity | Snow |
|---|---|---|---|---|---|---|---|
| 1778079530 | 7.22° C | 92% | 1022 hPa | 0 mm | - | 105 W/m² | - |
| 1778079216 | 6.67° C | 92% | 1022 hPa | 0 mm | - | 113 W/m² | - |
| 1778078014 | 6.67° C | 92% | 1021.9 hPa | 0 mm | - | 84 W/m² | - |
| 1778077719 | 6.11° C | 92% | 1021.9 hPa | 0 mm | - | 67 W/m² | - |
| 1778077425 | 6.11° C | 92% | 1021.9 hPa | 0 mm | - | 79 W/m² | - |
| 1778076813 | 6.11° C | 92% | 1021.8 hPa | 0 mm | - | 58 W/m² | - |
| 1778076519 | 6.11° C | 92% | 1021.8 hPa | 0 mm | - | 53 W/m² | - |
| 1778075635 | 5.56° C | 92% | 1021.6 hPa | 0 mm | - | 37 W/m² | - |
| 1778073816 | 5° C | 92% | 1021.2 hPa | 0 mm | - | 14 W/m² | - |
| 1778073221 | 5° C | 92% | 1021.1 hPa | 0 mm | - | 7 W/m² | - |
| 1778072927 | 5° C | 92% | 1020.9 hPa | 0 mm | - | 5 W/m² | - |
| 1778072612 | 5° C | 92% | 1020.8 hPa | 0 mm | - | 5 W/m² | - |
| 1778072317 | 5° C | 91% | 1020.6 hPa | 0 mm | - | 0 W/m² | - |
| 1778072025 | 5° C | 91% | 1020.7 hPa | 0 mm | - | 0 W/m² | - |
| 1778071419 | 5.56° C | 91% | 1020.6 hPa | 0 mm | - | 0 W/m² | - |
| 1778071121 | 5.56° C | 91% | 1020.6 hPa | 0 mm | - | 0 W/m² | - |
| 1778070822 | 5.56° C | 91% | 1020.6 hPa | 0 mm | - | 0 W/m² | - |
| 1778069913 | 5.56° C | 91% | 1020.4 hPa | 0 mm | - | 0 W/m² | - |
| 1778069619 | 6.11° C | 91% | 1020.4 hPa | 0 mm | - | 0 W/m² | - |
| 1778069326 | 6.11° C | 91% | 1020.3 hPa | 0 mm | - | 0 W/m² | - |
| 1778069030 | 6.11° C | 91% | 1020.2 hPa | 0 mm | - | 0 W/m² | - |
| 1778068717 | 6.11° C | 91% | 1020.2 hPa | 0 mm | - | 0 W/m² | - |
| 1778068424 | 6.11° C | 91% | 1020.2 hPa | 0 mm | - | 0 W/m² | - |
| 1778068130 | 6.11° C | 91% | 1020.2 hPa | 0 mm | - | 0 W/m² | - |
| 1778067816 | 6.67° C | 91% | 1020.3 hPa | 0 mm | - | 0 W/m² | - |
* Rain latest hour (hover to see other rain measurements)
** Current wind speed in m/s (hover to see current wind gust speed)